User: anonymous   Login
Location: Unspecified
(0.0000°N, 0.0000°E)
Time: 06:36:15
(UTC+00:00)
Language:

Tiros 10 - Orbit

View from above orbital plane
View from above orbital plane
View from above satellite
View from above satellite

Ground track
Ground track

The orbit data is extracted from the following two-line orbital elements,

1 01430U 65051A   14330.70265720  .00000242  00000-0  88323-4 0  7472
2 01430 098.0723 159.3877 0056492 201.5847 158.2961 14.39963446588745
Epoch (UTC): 26 November 2014 16:51:49
Eccentricity: 0.0056492
inclination: 98.0723°
perigee height: 718 km
apogee height: 799 km
right ascension of ascending node: 159.3877°
argument of perigee: 201.5847°
revolutions per day: 14.39963446
mean anomaly at epoch: 158.2961°
orbit number at epoch: 58874

The dashed part of the orbit path shows where the satellite is in the earth's shadow,  

DLR